Location: Seattle
(47.6064°N, 122.3308°W)
Time: 06:39:50
(UTC-07:00)

STRAND 1 - Pass Details

Date: 11 April 2023
Orbit: 767 x 779 km, 98.4° (Epoch: 02 June)

Event Time Altitude Azimuth Distance (km) Brightness Sun altitude
Rises 05:24:17 0° 116° (ESE) 3,241 ? -11.0°
Reaches altitude 10° 05:27:17 10° 98° (E) 2,316 ? -10.6°
Maximum altitude 05:30:34 18° 58° (ENE) 1,848 ? -10.1°
Drops below altitude 10° 05:33:51 10° 17° (NNE) 2,322 ? -9.5°
Sets 05:36:52 0° 359° (N) 3,252 ? -9.1°
